Simultaneous Nadir Overpasses (SNOs) Predictions

Prediction of SNOs between GOES-17 and TERRA Satellite Orbit:

Table of predicted SNOs for the next 14.0 days since TLE Epoch: 5/9/2020
Index Date Time (GOES-17) GOES-17 Lat,Lon TERRA Lat,Lon Distance(km) Time Diff (sec)
1 05/09/2020 19:39:57 0.03,-137.20 0.00,-137.09 12.12 80
2 05/11/2020 19:27:46 0.03,-137.19 -0.65,-134.14 347.31 80
3 05/12/2020 07:49:09 -0.02,-137.18 -0.47,-139.33 244.72 80
4 05/14/2020 07:34:18 -0.02,-137.16 0.12,-136.36 90.18 80
5 05/14/2020 19:55:33 0.02,-137.17 0.94,-141.53 495.32 80
6 05/16/2020 07:22:07 -0.01,-137.15 0.78,-133.41 424.81 80
7 05/16/2020 19:43:22 0.01,-137.16 0.28,-138.58 160.72 80
8 05/18/2020 19:33:50 0.01,-137.14 -0.32,-135.61 173.62 80
9 05/19/2020 07:55:14 -0.01,-137.12 -0.79,-140.80 418.41 80
10 05/21/2020 07:43:02 -0.01,-137.09 -0.19,-137.84 84.93 80




NCC Satellite Simultaneous Nadir Overpasses (SNOs) Prediction Service
